Regional Weather Roundup
Issued by NWS State College, PA

Home | Current Version | Previous Version | Text Only | Print | Product List | Glossary Off
Versions: 1 2 3 4 5 6 7 8 9 10 11 12 13 14 15 16 17 18 19 20 21 22 23 24 25 26 27 28 29 30 31 32 33 34 35 36 37 38 39 40 41 42 43 44 45 46 47 48 49 50

000
ASUS41 KCTP 250910
RWRCTP

REGIONAL WEATHER ROUNDUP
NATIONAL WEATHER SERVICE STATE COLLEGE PA
500 AM EDT SUN SEP 25 2016

Note: "fair" indicates few or no clouds below 12,000 feet with no
significant weather and/or obstructions to visibility.

* = STATION THAT DOES NOT REPORT PRECIPITATION /E.G. RAIN...SNOW...ETC/
    THUNDER OR FOG.

PAZ002>004-007>009-013>016-020>023-029>032-251000-
WESTERN PENNSYLVANIA

CITY           SKY/WX    TMP DP  RH WIND       PRES   REMARKS
ERIE           CLEAR     49  39  68 SE7       30.23S
MEADVILLE      CLEAR     44  40  85 NE7       30.23R
FRANKLIN*        N/A     43  39  87 NE6       30.23S
NEW CASTLE     FAIR      47  45  93 CALM      30.21F
BEAVER COUNTY  NOT AVBL
BUTLER*        CLEAR     46  43  87 NE7       30.22S
PITTSBURGH INT CLEAR     52  47  83 N5        30.18R
PITTSBURGH     CLEAR     51  45  79 N3        30.18R
INDIANA*       CLEAR     50  46  87 E6        30.23R
LATROBE        CLEAR     48  48 100 N3        30.19S
WASHINGTON CO* CLEAR     46  45  93 CALM      30.18S
$$

PAZ004>006-010>012-017>019-024>028-033>037-041-042-045-046-049>053-251000-
CENTRAL PENNSYLVANIA

CITY           SKY/WX    TMP DP  RH WIND       PRES   REMARKS
BRADFORD       CLEAR     36  35  96 CALM      30.23R
DUBOIS         CLEAR     44  40  85 E5        30.21R
CLEARFIELD     CLEAR     44  43  96 CALM      30.24R
JOHNSTOWN      CLEAR     49  43  80 NE5       30.20R
ALTOONA        CLEAR     45  45 100 E5        30.22R
STATE COLLEGE  PTCLDY    47  44  88 CALM      30.23R
WILLIAMSPORT   CLEAR     46  43  89 CALM      30.22R
SELINSGROVE    CLEAR     43  43 100 CALM      30.23R
FT INDIANTOWN  CLEAR     46  43  91 E1        30.21R
CAPITAL CITY   CLEAR     49  44  83 SW5       30.21R
HARRISBURG     CLEAR     52  46  80 N5        30.20R
YORK           CLEAR     43  43 100 CALM      30.20R
$$

PAZ038>040-043-044-047-048-054-055-060>062-067>071-251000-
EASTERN PENNSYLVANIA

CITY           SKY/WX    TMP DP  RH WIND       PRES   REMARKS
SCRANTON       CLEAR     44  40  85 E6        30.21R
MOUNT POCONO   CLEAR     38  36  92 CALM      30.19R
ALLENTOWN      CLEAR     47  42  83 CALM      30.20R
QUAKERTOWN*    SUNNY     41  41 100 CALM      30.20R
READING        CLEAR     47  44  90 NW5       30.20R
LANCASTER      CLEAR     50  45  83 N6        30.20R
COATESVILLE    SUNNY     52  41  66 N6        30.20R
POTTSTOWN      CLEAR     46  42  86 NW3       30.21R
BLUE BELL      CLEAR     46  43  87 CALM      30.17S
DOYLESTOWN     CLEAR     50  43  77 NE3       30.18R
WILLOW GROVE   NOT AVBL
NORTH PHILA    CLEAR     54  42  64 N9        30.19R
PHILADELPHIA   CLEAR     56  41  57 N10       30.18R
$$




USA.gov is the U.S. government's official web portal to all federal, state and local government web resources and services.